User: anonymous
Location: Unspecified
(0.0000°N, 0.0000°E)
Time: 19:12:35
(UTC+02:00)
Language:

ARIANE 5 R/B - Orbit

View from above orbital plane
View from above orbital plane
View from above satellite
View from above satellite

Ground track
Ground track

The orbit data is extracted from the following two-line orbital elements,

1 27510U 02040C   14207.03668811 -.00000236  00000-0 -19343-3 0   276
2 27510 005.0907 261.9639 7165564 243.3803 011.4349 02.27176792 98867
Epoch (UTC): 26 July 2014 00:52:49
Eccentricity: 0.7165564
inclination: 5.0907°
perigee height: 550 km
apogee height: 35580 km
right ascension of ascending node: 261.9639°
argument of perigee: 243.3803°
revolutions per day: 2.27176792
mean anomaly at epoch: 11.4349°
orbit number at epoch: 9886

The dashed part of the orbit path shows where the satellite is in the earth's shadow,  

DLR